When you browse on this site, cookies collect data to enhance your experience and personalize the content and advertising you see.
Visit our Privacy Policy to learn more. By continuing to use the site, you agree to this use of cookies and data.
  • In Spain
  • List of Countries
  • For 7 days
  • Water Temperature
  • Weather Map
  • Weather Widgets
  • user-avatar
    Login

    Hourly Weather Loncoche

    Today, 20 January, Monday

    Time Temperature Precipitation Wind Pressure Humidity
    00:00 +11°C° 0 mm 1 mps 750 mmHg 74%
    01:00 +10°C° 0 mm 1 mps 750 mmHg 79%
    02:00 +9°C° 0 mm 1 mps 750 mmHg 84%
    03:00 +9°C° 0 mm 1 mps 750 mmHg 89%
    04:00 +8°C° 0 mm 1 mps 749 mmHg 95%
    05:00 +10°C° 0 mm 1 mps 749 mmHg 89%
    06:00 +11°C° 0 mm 1 mps 749 mmHg 84%
    07:00 +13°C° 0 mm 1 mps 749 mmHg 78%
    08:00 +15°C° 0 mm 2 mps 749 mmHg 68%
    09:00 +18°C° 0 mm 2 mps 749 mmHg 58%
    10:00 +21°C° 0 mm 2 mps 749 mmHg 48%
    11:00 +24°C° 0 mm 2 mps 749 mmHg 43%
    12:00 +27°C° 0 mm 2 mps 749 mmHg 38%
    13:00 +29°C° 0 mm 2 mps 749 mmHg 33%
    14:00 +29°C° 0 mm 2 mps 748 mmHg 32%
    15:00 +30°C° 0 mm 2 mps 748 mmHg 32%
    16:00 +30°C° 0 mm 3 mps 748 mmHg 32%
    17:00 +27°C° 0 mm 2 mps 749 mmHg 39%
    18:00 +24°C° 0 mm 2 mps 749 mmHg 46%
    19:00 +20°C° 0 mm 2 mps 750 mmHg 53%
    20:00 +18°C° 0 mm 2 mps 750 mmHg 61%
    21:00 +18°C° 0 mm 1 mps 750 mmHg 69%
    22:00 +15°C° 0 mm 1 mps 751 mmHg 77%
    23:00 +14°C° 0 mm 1 mps 751 mmHg 81%

    Tomorrow, 21 January, Tuesday

    Time Temperature Precipitation Wind Pressure Humidity
    00:00 +13°C° 0 mm 1 mps 751 mmHg 86%
    01:00 +13°C° 0 mm 1 mps 751 mmHg 91%
    02:00 +12°C° 0 mm 1 mps 750 mmHg 93%
    03:00 +12°C° 0 mm 1 mps 750 mmHg 95%
    04:00 +11°C° 0 mm 1 mps 750 mmHg 97%
    05:00 +13°C° 0 mm 1 mps 750 mmHg 91%
    06:00 +14°C° 0 mm 1 mps 750 mmHg 85%
    07:00 +15°C° 0 mm 1 mps 750 mmHg 80%
    08:00 +18°C° 0 mm 2 mps 750 mmHg 69%
    09:00 +21°C° 0 mm 2 mps 750 mmHg 58%
    10:00 +25°C° 0 mm 2 mps 750 mmHg 48%
    11:00 +27°C° 0 mm 2 mps 749 mmHg 43%
    12:00 +29°C° 0 mm 2 mps 749 mmHg 38%
    13:00 +31°C° 0 mm 3 mps 748 mmHg 33%
    14:00 +33°C° 0 mm 3 mps 748 mmHg 32%
    15:00 +33°C° 0 mm 3 mps 748 mmHg 31%
    16:00 +33°C° 0 mm 3 mps 748 mmHg 30%
    17:00 +29°C° 0 mm 3 mps 748 mmHg 36%
    18:00 +26°C° 0 mm 3 mps 748 mmHg 42%
    19:00 +23°C° 0 mm 2 mps 748 mmHg 48%
    20:00 +20°C° 0 mm 2 mps 749 mmHg 53%
    21:00 +19°C° 0 mm 2 mps 749 mmHg 58%
    22:00 +17°C° 0 mm 2 mps 749 mmHg 63%
    23:00 +16°C° 0 mm 1 mps 749 mmHg 68%

    Day after tomorrow, 22 January, Wednesday

    Time Temperature Precipitation Wind Pressure Humidity
    00:00 +15°C° 0 mm 1 mps 749 mmHg 73%
    01:00 +14°C° 0 mm 1 mps 748 mmHg 77%
    02:00 +13°C° 0 mm 1 mps 748 mmHg 83%
    03:00 +12°C° 0 mm 1 mps 748 mmHg 88%
    04:00 +11°C° 0 mm 1 mps 748 mmHg 93%
    05:00 +13°C° 0 mm 1 mps 748 mmHg 88%
    06:00 +14°C° 0 mm 1 mps 748 mmHg 82%
    07:00 +15°C° 0 mm 1 mps 747 mmHg 77%
    08:00 +19°C° 0 mm 1 mps 747 mmHg 67%
    09:00 +21°C° 0 mm 2 mps 747 mmHg 57%
    10:00 +25°C° 0 mm 2 mps 747 mmHg 46%
    11:00 +27°C° 0 mm 2 mps 747 mmHg 42%
    12:00 +29°C° 0 mm 2 mps 747 mmHg 37%
    13:00 +31°C° 0 mm 2 mps 747 mmHg 33%
    14:00 +31°C° 0 mm 2 mps 746 mmHg 32%
    15:00 +31°C° 0 mm 2 mps 746 mmHg 31%
    16:00 +31°C° 0 mm 2 mps 746 mmHg 31%
    17:00 +29°C° 0 mm 2 mps 747 mmHg 37%
    18:00 +26°C° 0 mm 2 mps 747 mmHg 44%
    19:00 +23°C° 0 mm 1 mps 747 mmHg 51%
    20:00 +21°C° 0 mm 1 mps 747 mmHg 56%
    21:00 +19°C° 0 mm 1 mps 748 mmHg 61%
    22:00 +15°C° 0 mm 1 mps 748 mmHg 66%
    23:00 +15°C° 0 mm 1 mps 748 mmHg 72%

    23 January, Thursday

    Time Temperature Precipitation Wind Pressure Humidity
    00:00 +14°C° 0 mm 1 mps 748 mmHg 78%
    01:00 +13°C° 0 mm 1 mps 748 mmHg 84%
    02:00 +12°C° 0 mm 1 mps 749 mmHg 88%
    03:00 +11°C° 0 mm 1 mps 749 mmHg 93%
    04:00 +10°C° 0 mm 0 mps 750 mmHg 97%
    05:00 +12°C° 0 mm 1 mps 750 mmHg 91%
    06:00 +14°C° 0 mm 1 mps 750 mmHg 85%
    07:00 +15°C° 0 mm 1 mps 751 mmHg 78%
    08:00 +19°C° 0 mm 1 mps 751 mmHg 68%
    09:00 +21°C° 0 mm 1 mps 751 mmHg 58%
    10:00 +24°C° 0 mm 2 mps 751 mmHg 47%
    11:00 +26°C° 0 mm 2 mps 751 mmHg 42%
    12:00 +27°C° 0 mm 2 mps 751 mmHg 38%
    13:00 +29°C° 0 mm 2 mps 751 mmHg 33%
    14:00 +28°C° 0 mm 3 mps 751 mmHg 35%
    15:00 +28°C° 0 mm 3 mps 751 mmHg 37%
    16:00 +27°C° 0 mm 3 mps 751 mmHg 38%
    17:00 +25°C° 0 mm 3 mps 752 mmHg 47%
    18:00 +21°C° 0 mm 2 mps 752 mmHg 56%
    19:00 +20°C° 0 mm 1 mps 752 mmHg 64%
    20:00 +18°C° 0 mm 1 mps 753 mmHg 70%
    21:00 +15°C° 0 mm 1 mps 753 mmHg 76%
    22:00 +12°C° 0 mm 0 mps 753 mmHg 81%
    23:00 +11°C° 0 mm 0 mps 753 mmHg 84%

    24 January, Friday

    Time Temperature Precipitation Wind Pressure Humidity
    00:00 +10°C° 0 mm 0 mps 753 mmHg 86%
    01:00 +9°C° 0 mm 0 mps 753 mmHg 89%
    02:00 +10°C° 0 mm 1 mps 753 mmHg 91%
    03:00 +9°C° 0 mm 1 mps 753 mmHg 94%
    04:00 +9°C° 0 mm 1 mps 753 mmHg 96%
    05:00 +10°C° 0 mm 1 mps 753 mmHg 88%
    06:00 +12°C° 0 mm 1 mps 753 mmHg 81%
    07:00 +14°C° 0 mm 1 mps 753 mmHg 73%
    08:00 +18°C° 0 mm 1 mps 753 mmHg 59%
    09:00 +21°C° 0 mm 1 mps 753 mmHg 45%
    10:00 +24°C° 0 mm 2 mps 753 mmHg 31%
    11:00 +25°C° 0 mm 2 mps 752 mmHg 28%
    12:00 +26°C° 0 mm 2 mps 752 mmHg 24%
    13:00 +28°C° 0 mm 2 mps 752 mmHg 21%
    14:00 +27°C° 0 mm 3 mps 752 mmHg 22%
    15:00 +27°C° 0 mm 3 mps 752 mmHg 24%
    16:00 +27°C° 0 mm 3 mps 752 mmHg 25%
    17:00 +24°C° 0 mm 2 mps 753 mmHg 34%
    18:00 +20°C° 0 mm 2 mps 753 mmHg 42%
    19:00 +18°C° 0 mm 1 mps 753 mmHg 50%
    20:00 +16°C° 0 mm 1 mps 754 mmHg 56%
    21:00 +13°C° 0 mm 0 mps 754 mmHg 63%
    22:00 +11°C° 0 mm 0 mps 754 mmHg 69%
    23:00 +11°C° 0 mm 0 mps 754 mmHg 71%

    25 January, Saturday

    Time Temperature Precipitation Wind Pressure Humidity
    00:00 +11°C° 0 mm 0 mps 754 mmHg 73%
    01:00 +10°C° 0 mm 0 mps 753 mmHg 75%
    02:00 +10°C° 0 mm 0 mps 753 mmHg 76%
    03:00 +9°C° 0 mm 0 mps 753 mmHg 78%
    04:00 +9°C° 0 mm 0 mps 753 mmHg 80%
    05:00 +11°C° 0 mm 0 mps 753 mmHg 71%
    06:00 +13°C° 0 mm 0 mps 753 mmHg 63%
    07:00 +16°C° 0 mm 1 mps 753 mmHg 55%
    08:00 +20°C° 0 mm 1 mps 753 mmHg 48%
    09:00 +22°C° 0 mm 1 mps 753 mmHg 42%
    10:00 +25°C° 0 mm 2 mps 753 mmHg 36%
    11:00 +26°C° 0 mm 2 mps 752 mmHg 35%
    12:00 +28°C° 0 mm 2 mps 752 mmHg 35%
    13:00 +29°C° 0 mm 2 mps 752 mmHg 35%
    14:00 +28°C° 0 mm 3 mps 752 mmHg 39%
    15:00 +27°C° 0 mm 3 mps 752 mmHg 43%
    16:00 +27°C° 0 mm 3 mps 752 mmHg 47%
    17:00 +25°C° 0 mm 2 mps 752 mmHg 57%
    18:00 +21°C° 0 mm 2 mps 753 mmHg 67%
    19:00 +20°C° 0 mm 1 mps 753 mmHg 78%
    20:00 +19°C° 0 mm 1 mps 753 mmHg 84%
    21:00 +16°C° 0 mm 1 mps 753 mmHg 91%
    22:00 +14°C° 0 mm 0 mps 753 mmHg 98%
    23:00 +14°C° 0 mm 0 mps 753 mmHg 98%
    Show more